Location: Bathsheba
(13.2167°N, 59.5167°W)
Time: 23:39:30
(UTC+00:00)

CZ-2C R/B - Pass Details

Date: 18 September 2020
Orbit: 704 x 907 km, 98.1° (Epoch: 20 October)

Event Time Altitude Azimuth Distance (km) Brightness Sun altitude
Rises 22:50:32 0° 155° (SSE) 3,140 5.9 -13.9°
Reaches altitude 10° 22:52:50 10° 150° (SSE) 2,241 5.1 -14.5°
Maximum altitude 22:57:33 48° 76° (ENE) 993 3.2 -15.6°
Drops below altitude 10° 23:02:31 10° 3° (N) 2,358 5.6 -16.8°
Sets 23:04:59 0° 358° (N) 3,321 6.4 -17.4°
